#timestamp,LO_Frequency,Hit,StdDev 
1665626415.7,286047001.7,N
1665626435.5,286047003.2,N
1665626455.3,286047005.5,N
1665626475.2,286047007.6,N
1665626495.9,286047006.9,N
1665626515.7,286047007.4,N
1665626535.6,286047013.9,Y
1665626555.4,286047011.5,P
1665626575.3,286047014.2,P
1665626595.1,286047016.2,P
1665626596.0,286047016.2,Y
1665626615.8,286047009.6,P
1665626635.7,286047015.5,P
1665626655.5,286047018.3,P
1665626675.3,286047018.0,Y
1665626695.2,286047006.5,P
1665626715.0,286047007.8,N
1665626715.9,286047007.8,N
1665626735.8,286047006.9,N
1665626755.6,286047005.4,N
1665626775.4,286047007.7,N
1665626795.3,286047006.3,N
1665626815.1,286047004.7,N
1665626835.8,286047003.1,N
1665626855.7,286047001.7,N
1665626875.5,286047001.5,N
1665626895.4,286047003.6,N
1665626915.2,286047003.1,N
1665626935.0,286047003.8,N
1665626935.9,286047003.8,N
1665626955.8,286047002.4,N
1665626975.6,286047002.2,N
1665626995.5,286046995.3,N
1665627015.3,286046996.3,N
1665627035.1,286046998.0,N
1665627055.9,286046999.5,N
1665627075.7,286046996.4,N
1665627095.5,286046996.0,N
1665627115.4,286046998.3,N
1665627135.2,286046998.3,N
1665627155.1,286047000.2,N
1665627156.0,286047011.9,N
1665627175.8,286047003.5,N
1665627195.6,286047005.3,N
1665627215.5,286047003.2,N
1665627235.3,286047003.6,N
1665627255.1,286047004.9,N
1665627275.9,286047006.5,N
1665627295.7,286047004.5,N
1665627315.6,286047005.2,N
1665627335.4,286047004.5,N
1665627355.2,286047004.6,N
1665627375.1,286047007.2,N
1665627376.0,286047007.2,N
1665627395.8,286047010.6,N
1665627415.6,286047010.0,N
1665627435.5,286047012.4,N
1665627455.3,286047013.4,N
1665627475.2,286047013.5,N
1665627495.9,286047014.7,N
1665627515.7,286047017.2,Y
1665627535.6,286047006.9,P
1665627555.4,286047005.0,P
1665627575.3,286047004.6,P
1665627595.1,286047003.0,N
1665627596.0,286047003.0,N
1665627615.8,286047001.7,N
1665627635.7,286047005.9,Y
1665627655.5,286046997.1,P
1665627675.4,286046998.7,N
1665627695.2,286046998.5,N
1665627715.0,286046997.2,N
1665627715.9,286046997.2,N
1665627735.8,286046997.1,N
1665627755.6,286046998.3,N
1665627775.4,286046995.2,N
1665627795.3,286046992.0,Y
1665627815.1,286046993.4,P
1665627835.9,286046994.1,N
1665627855.7,286046993.6,P
1665627875.5,286046990.1,Y
1665627895.4,286046998.8,P
1665627915.2,286046997.0,N
1665627935.1,286047004.1,N
1665627936.0,286047004.1,N
1665627955.8,286047005.2,N
1665627975.6,286047002.9,N
1665627995.5,286047008.4,N
1665628015.3,286047012.3,N
1665628035.1,286047010.9,N
1665628055.9,286047013.2,N
1665628075.7,286047016.9,N
1665628095.6,286047016.1,N
1665628115.4,286047017.4,N
1665628135.2,286047021.3,N
1665628155.1,286047020.6,N
1665628156.0,286047020.6,N
1665628175.8,286047022.9,N
1665628195.7,286047021.3,N
1665628215.5,286047019.2,N
1665628235.3,286047019.9,N
1665628255.2,286047021.6,N
1665628275.0,286047023.2,N
1665628275.9,286047023.2,N
1665628295.8,286047024.8,N
1665628315.6,286047024.2,N
1665628335.4,286047025.6,N
1665628355.3,286047029.2,Y
1665628375.1,286047014.4,P
1665628395.8,286047011.6,P
1665628415.7,286047016.6,P
1665628435.5,286047020.0,Y
1665628455.4,286047005.2,P
1665628475.2,286047003.0,N
1665628495.0,286047002.5,N
1665628495.9,286047002.5,N
1665628515.8,286046999.4,N
1665628535.6,286046996.8,N
1665628555.5,286046997.3,N
1665628575.3,286046997.2,N
1665628595.1,286046996.2,N
1665628615.9,286046995.6,N
1665628635.7,286046995.1,N
1665628655.5,286046994.6,N
1665628675.4,286046995.2,N
1665628695.2,286046995.1,N
1665628715.0,286046993.6,N
1665628716.0,286046993.6,N
1665628735.8,286046996.0,N
1665628755.7,286046996.1,N
1665628775.5,286046993.5,N
1665628795.3,286046992.4,N
1665628815.2,286046994.5,N
1665628835.0,286046993.0,N
1665628835.9,286046993.0,N
1665628855.8,286046992.2,N
1665628875.6,286046991.7,N
1665628895.4,286046990.1,N
1665628915.3,286046992.6,N
1665628935.1,286046991.9,N
1665628955.9,286046995.8,N
1665628975.7,286046996.9,N
1665628995.6,286046997.2,N
1665629015.4,286046999.4,N
1665629035.2,286047001.9,N
1665629055.1,286047004.2,N
1665629056.0,286047004.2,N
1665629075.8,286047001.5,N
1665629095.7,286047003.2,N
1665629115.5,286047006.3,N
1665629135.3,286047008.8,N
1665629155.2,286047006.1,N
1665629175.0,286047010.0,N
1665629175.9,286047010.0,N
1665629195.7,286047010.2,N
1665629215.6,286047011.7,N
1665629235.4,286047016.5,N
1665629255.3,286047016.6,N
1665629275.1,286047014.6,N
1665629295.8,286047016.2,N
1665629315.7,286047018.6,N
1665629335.5,286047018.0,N
1665629355.4,286047016.6,N
1665629375.2,286047015.1,N
1665629395.0,286047014.9,N
1665629395.9,286047014.9,N
1665629415.8,286047012.6,N
1665629435.6,286047015.5,N
1665629455.4,286047015.1,N
1665629475.3,286047015.3,N
1665629495.1,286047014.2,N
1665629515.9,286047014.6,N
1665629535.7,286047012.9,N
1665629555.5,286047011.8,N
1665629575.4,286047011.1,N
1665629595.2,286047013.5,N
1665629615.1,286047013.3,Y
1665629616.0,286047013.3,P
1665629635.8,286047002.8,P
1665629655.6,286047002.4,N
1665629675.5,286046999.4,N
1665629695.3,286046996.6,N
1665629715.1,286046994.2,N
1665629735.9,286046990.3,N
1665629755.7,286046990.8,N
1665629775.5,286046986.9,N
1665629795.4,286046987.9,N
1665629815.2,286046989.0,N
1665629835.1,286046993.1,N
1665629836.0,286046993.1,N
1665629855.8,286046991.6,N
1665629875.6,286046990.5,N
1665629895.5,286046994.4,N
1665629915.3,286046994.0,N
1665629935.1,286046996.7,N
1665629955.9,286046998.2,N
1665629975.7,286047000.5,N
1665629995.6,286047005.6,N
